EHI
0 0 0 0 0 0 0 0 0 1 6 13 15 9 3 2 3 4 3 1 0 0 0 0 0 0 0 0 0 0 0 0 0 0 0 0 0 0 0 0 0 0 0
0 0 0 0 0 0 0 0 0 1 4 10 14 12 7 4 4 5 5 3 1 1 0 0 0 0 0 0 0 0 0 0 0 0 0 0 0 0 0 0 0 0 0
0 0 0 0 0 0 0 0 0 0 2 7 13 15 12 8 5 6 6 4 2 2 1 1 0 0 0 0 0 0 0 0 0 0 0 0 0 0 0 0 0 0 0
0 0 0 0 0 0 0 0 0 0 0 3 9 12 11 7 4 4 4 4 3 3 3 2 1 1 1 0 0 0 0 0 0 0 0 0 0 0 0 0 0 0 0
0 0 0 0 0 0 0 0 0 0 0 1 3 4 4 3 1 1 3 5 6 8 7 5 4 3 2 1 0 0 0 0 0 0 0 0 0 0 0 0 0 0 0
0 0 0 0 0 0 0 0 0 0 0 0 0 0 0 0 0 1 2 5 9 11 9 7 6 5 3 2 1 0 0 0 0 0 0 0 0 0 0 0 0 0 0
0 0 0 0 0 0 0 0 0 0 0 0 0 0 0 0 0 0 1 2 5 8 8 6 6 5 4 3 1 0 0 0 0 0 0 0 0 0 0 0 0 0 0
0 0 0 0 0 0 0 0 0 0 0 0 0 0 0 0 0 0 0 1 1 3 4 3 3 4 4 3 2 1 0 0 0 0 0 0 0 0 0 0 0 0 0
0 0 0 0 0 0 0 0 0 0 0 0 0 0 0 0 0 0 0 1 1 2 2 1 2 3 3 3 2 1 0 0 0 0 0 0 0 0 0 0 0 0 0
0 0 0 0 0 0 0 0 0 0 0 0 0 0 0 0 0 0 0 1 1 2 3 2 2 2 2 2 1 0 0 0 0 0 0 0 0 0 0 0 0 0 0
0 0 0 0 0 0 0 0 0 0 0 0 0 0 0 0 0 0 0 0 0 1 2 2 1 1 1 0 0 0 0 0 0 0 0 0 0 0 0 0 0 0 0
0 0 0 0 0 0 0 0 0 0 0 0 0 0 0 0 0 0 0 0 0 0 1 1 0 0 0 0 0 0 0 0 0 0 0 0 0 0 0 0 0 0 0
0 0 0 0 0 0 0 0 0 0 0 0 0 0 0 0 0 0 0 0 0 0 0 0 0 0 0 0 0 0 0 0 0 0 0 0 0 0 0 0 0 0 0
0 0 0 0 0 0 0 0 0 0 0 0 0 0 0 0 0 0 0 0 0 0 0 0 0 0 0 0 0 0 0 0 0 0 0 0 0 0 0 0 0 0 0
0 0 0 0 0 0 0 0 0 0 0 0 0 0 0 0 0 0 0 0 0 0 0 0 0 0 0 0 0 0 0 0 0 0 0 0 0 0 0 0 0 0 0
0 0 0 0 0 0 0 0 0 0 0 0 0 0 0 0 0 0 0 0 0 0 0 0 0 0 0 0 0 0 0 0 0 0 0 0 0 0 0 0 0 0 0
0 0 0 0 0 0 0 0 0 0 0 0 0 0 0 0 0 0 0 0 0 0 0 0 0 0 0 0 0 0 0 0 0 0 0 0 0 0 0 0 0 0 0
0 0 0 0 0 0 0 0 0 0 0 0 0 0 0 0 0 0 0 0 0 0 0 0 0 0 0 0 0 0 0 0 0 0 0 0 0 0 0 0 0 0 0
0 0 0 0 0 0 0 0 0 0 0 0 0 0 0 0 0 0 0 0 0 0 0 0 0 0 0 0 0 0 0 0 0 0 0 0 0 0 0 0 0 0 0
0 0 0 0 0 0 0 0 0 0 0 0 0 0 0 0 0 0 0 0 0 0 0 0 0 0 0 0 0 0 0 0 0 0 0 0 0 0 0 0 0 0 0
0 0 0 0 0 0 0 0 0 0 0 0 0 0 0 0 0 0 0 0 0 0 0 0 0 0 0 0 0 0 0 0 0 0 0 0 0 0 0 0 0 0 0
0 0 0 0 0 0 0 0 0 0 0 0 0 0 0 0 0 0 0 0 0 0 0 0 0 0 0 0 0 0 0 0 0 0 0 0 0 0 0 0 0 0 0
0 0 0 0 0 0 0 0 0 0 0 0 0 0 0 0 0 0 0 0 0 0 0 0 0 0 0 0 0 0 0 0 0 0 0 0 0 0 0 0 0 0 0
0 0 0 0 0 0 0 0 0 0 0 0 0 0 0 0 0 0 0 0 0 0 0 0 0 0 0 0 0 0 0 0 0 0 0 0 0 0 0 0 0 0 0
0 0 0 0 0 0 0 0 0 0 0 0 0 0 0 0 0 0 0 0 0 0 0 0 0 0 0 0 0 0 0 0 0 0 0 0 0 0 0 0 0 0 0
0 0 0 0 0 0 0 0 0 0 0 0 0 0 0 0 0 0 0 0 0 0 0 0 0 0 0 0 0 0 0 0 0 0 0 0 0 0 0 0 0 0 0
Wind_Speed
8 6 6 6 6 7 8 10 11 12 11 9 9 10 11 11 10 11 14 14 14 15 15 11 13 12 11 12 13 10 10 8 7 5 5 5 6 7 6 7 7 8 8
5 4 4 4 5 6 7 8 9 10 11 9 9 9 10 9 10 10 12 15 15 15 13 16 13 13 12 14 14 12 9 7 8 7 5 5 7 7 8 7 7 8 8
2 1 1 1 1 2 4 4 7 8 9 10 8 7 8 8 8 11 12 15 16 16 15 16 15 14 13 13 15 15 15 10 10 9 8 6 8 5 6 9 8 8 7
2 2 2 2 2 2 3 3 4 5 6 7 9 12 11 12 13 11 11 13 15 16 16 15 15 14 12 13 14 15 14 13 10 8 8 5 2 5 5 5 7 7 7
3 3 3 3 3 4 3 3 3 3 4 5 8 10 12 11 10 11 13 13 12 14 15 15 14 14 12 14 14 14 15 13 12 9 7 7 3 4 4 4 5 5 5
4 5 4 4 5 5 4 4 4 3 3 4 5 8 11 12 12 13 12 11 9 10 14 14 13 13 12 13 13 12 15 12 12 10 8 7 6 7 6 5 4 4 3
4 5 6 6 6 6 6 6 5 5 5 4 5 6 9 10 12 13 12 12 9 9 11 11 12 11 11 10 10 10 10 11 11 10 7 6 4 3 4 4 3 3 2
4 5 5 6 6 6 7 7 7 7 6 6 6 6 7 7 7 10 10 10 9 9 9 10 10 10 9 9 8 7 8 7 7 7 6 4 3 3 3 4 5 3 2
4 4 5 6 6 7 7 8 8 7 8 8 7 7 6 7 8 9 9 8 8 6 7 7 8 8 8 8 8 6 7 7 6 6 6 5 4 4 3 3 3 5 4
3 4 5 6 6 6 7 7 7 8 8 8 7 6 7 7 7 7 7 6 6 5 5 5 5 6 6 7 7 6 7 8 7 6 8 7 5 5 4 4 4 3 2
3 4 4 5 5 6 6 7 8 8 8 8 8 7 7 6 5 4 4 4 3 3 3 3 4 5 6 7 8 8 9 10 9 8 9 8 8 6 5 5 4 3 2
2 3 4 5 5 6 7 7 8 8 8 8 7 7 7 6 5 5 4 3 1 1 2 4 5 6 7 7 9 10 10 10 10 10 10 9 7 7 5 4 4 3 2
2 2 3 5 5 6 6 7 7 8 8 7 7 7 8 7 7 6 6 5 5 5 6 6 7 7 7 8 9 10 10 10 10 10 10 9 8 7 5 4 3 2 2
1 2 3 4 5 5 6 6 7 7 7 7 8 9 9 8 8 8 8 8 8 8 8 9 9 9 9 9 10 10 11 11 10 9 8 7 6 6 5 3 3 2 2
1 2 3 4 4 5 6 6 6 7 7 8 9 9 8 8 9 10 10 10 10 11 10 11 11 10 9 9 10 10 11 10 10 9 7 6 6 6 4 3 3 3 3
1 1 2 3 4 5 5 5 6 7 7 8 8 8 8 9 10 10 11 11 11 11 11 11 11 11 9 15 15 11 10 9 8 8 6 6 5 4 3 2 3 4 5
1 1 1 3 3 4 4 5 6 6 7 8 8 8 8 9 9 10 10 10 10 11 11 11 11 11 13 17 17 15 9 8 6 6 5 3 3 2 1 2 4 6 7
3 2 2 3 3 4 4 5 6 6 7 8 8 8 8 9 9 10 10 9 9 9 10 10 10 11 13 16 15 13 8 7 6 4 3 2 1 0 3 4 4 5 6
3 3 4 4 4 4 5 5 6 7 7 8 7 7 7 8 9 9 9 8 9 9 9 9 9 10 10 12 11 8 5 5 5 3 2 1 1 2 5 5 5 6 6
4 5 5 5 5 5 5 6 7 7 7 7 7 7 7 8 9 8 8 8 8 8 8 8 8 7 7 8 8 5 3 3 2 1 1 1 3 5 6 5 6 7 7
6 5 5 5 5 5 6 7 7 7 6 6 7 7 8 8 8 8 7 7 7 8 8 7 6 6 7 7 7 5 2 2 1 1 1 2 5 7 7 7 6 7 9
7 6 5 5 5 5 6 7 6 6 6 7 7 7 7 7 6 7 7 7 7 7 7 6 6 5 5 6 5 5 4 3 2 2 2 3 6 8 8 6 7 10 9
7 6 6 6 5 5 6 7 6 6 7 7 7 7 7 6 6 6 6 5 5 4 4 3 3 3 3 3 5 5 5 5 3 3 4 6 7 7 5 5 7 7 4
8 7 7 7 6 6 6 7 7 7 7 8 7 6 6 6 6 4 4 4 3 3 3 2 2 2 1 2 2 2 2 3 3 3 4 5 5 5 5 5 4 3 4
8 8 7 7 8 7 7 7 7 7 8 7 6 6 5 6 5 5 4 4 4 2 2 2 1 1 1 3 5 4 3 4 4 4 3 3 3 3 3 3 3 3 4
9 8 8 8 8 8 8 7 7 7 8 7 6 4 4 4 4 5 5 6 5 6 5 3 1 1 2 4 5 5 6 6 6 4 4 4 4 4 4 5 5 4 4
Wind_Direction
263 270 268 258 246 240 239 238 235 228 223 218 215 216 221 223 224 225 227 224 221 216 215 215 214 209 209 207 204 197 197 197 182 180 195 208 216 217 209 209 204 198 198
256 264 267 258 249 245 243 244 242 240 232 227 224 224 227 228 227 225 228 226 223 219 215 216 214 209 211 210 206 196 196 188 188 193 193 208 206 215 213 208 211 205 197
260 280 297 291 278 274 269 259 253 250 244 239 234 231 232 234 230 227 227 226 223 221 218 219 218 213 211 211 206 201 200 194 195 204 199 207 217 178 189 210 208 206 204
76 47 34 32 17 342 323 299 282 266 256 246 236 231 229 230 232 233 232 230 226 224 221 220 220 217 214 215 210 206 208 202 195 203 225 243 267 189 176 190 208 210 212
60 52 36 24 23 12 355 336 316 295 281 261 247 242 240 242 245 243 241 239 231 226 223 221 219 219 216 218 213 207 210 209 202 192 190 204 219 239 206 183 178 197 211
56 52 46 37 33 25 16 2 347 337 320 287 265 250 250 249 249 248 246 244 239 230 225 222 221 220 218 218 217 211 211 212 209 198 189 185 186 199 204 198 170 176 167
43 36 32 25 21 15 10 1 354 346 338 316 287 270 262 258 253 253 250 248 243 235 228 222 223 221 219 215 212 209 208 210 210 204 199 199 192 166 179 175 149 151 142
33 27 22 13 9 5 0 356 350 342 338 328 313 295 281 268 262 258 256 254 250 244 236 226 222 218 212 205 200 198 196 193 199 196 183 168 149 137 146 149 142 144 168
22 17 13 8 3 359 356 350 343 338 336 329 319 308 299 284 276 272 266 261 257 255 242 228 219 211 201 192 181 182 178 170 171 164 152 136 122 112 107 109 128 149 176
16 14 9 5 0 356 351 351 348 343 339 334 329 318 311 302 291 279 269 265 262 252 236 221 208 194 180 167 160 155 155 150 143 138 137 127 124 113 103 100 89 88 131
6 9 6 5 2 3 1 1 359 353 349 345 340 336 334 331 320 305 292 279 266 248 221 191 169 160 155 151 146 143 144 139 134 134 131 125 123 115 106 100 102 102 116
14 14 13 14 14 13 10 7 4 0 356 351 352 355 354 355 358 1 360 3 32 87 120 128 130 130 135 139 139 139 139 137 135 132 127 125 120 114 113 114 119 127 146
29 27 28 22 19 16 15 13 12 6 2 4 9 14 15 17 21 25 32 45 63 76 85 97 105 110 115 119 122 124 124 122 122 124 123 123 127 124 123 125 134 149 173
48 32 31 29 23 20 19 18 18 15 15 22 29 30 28 30 36 41 47 55 66 74 79 84 89 94 99 103 107 110 109 107 106 108 110 115 121 123 129 135 152 172 200
57 40 30 28 27 28 28 25 26 26 31 41 44 42 41 45 52 57 59 61 66 71 77 81 84 86 88 95 100 101 103 103 101 96 95 101 112 128 140 155 176 199 227
105 57 41 29 34 34 34 33 37 39 46 54 53 51 54 56 59 63 67 69 70 72 75 77 81 82 87 99 99 98 95 97 101 101 101 109 116 128 141 201 244 247 253
149 119 75 53 48 47 47 50 51 56 60 62 60 59 63 64 65 69 71 73 74 76 77 76 79 83 90 93 92 91 91 96 100 106 113 115 119 129 219 253 257 255 262
158 142 116 94 82 75 74 75 71 70 71 70 68 68 72 73 73 74 73 72 74 76 77 77 78 82 87 91 94 95 91 92 96 101 106 111 127 257 279 269 268 268 264
136 125 116 112 105 93 89 90 83 80 75 72 74 75 81 84 81 79 76 75 77 75 74 76 81 85 89 93 98 98 100 101 100 96 85 14 302 295 283 281 282 285 282
135 130 127 122 111 100 100 94 88 84 79 79 81 83 85 87 86 85 83 81 82 83 83 79 78 86 96 99 98 91 90 95 96 99 76 355 318 308 301 293 286 286 294
139 136 133 122 112 113 110 101 95 89 89 90 88 86 87 90 92 91 91 93 93 91 88 86 82 80 84 91 87 75 57 51 33 355 340 346 323 313 311 304 291 293 299
149 148 138 125 119 122 119 112 104 102 102 99 94 89 90 92 96 99 98 100 103 100 98 95 88 76 70 65 64 55 43 22 352 335 330 327 322 317 314 306 302 302 302
158 156 147 134 126 126 130 123 121 120 115 106 100 97 96 94 100 105 107 104 101 99 99 98 95 86 68 58 45 31 21 7 339 331 331 326 324 317 303 297 305 304 290
166 161 156 147 141 140 138 133 134 132 125 117 111 109 106 101 97 93 94 98 98 101 105 103 101 96 71 30 7 359 348 335 323 314 312 310 305 293 293 300 293 285 291
168 168 165 157 151 150 146 144 144 143 133 126 120 116 110 111 102 90 76 78 73 65 86 95 96 53 23 5 351 343 337 334 333 319 303 306 313 314 316 309 303 296 290
170 171 169 162 159 159 155 153 155 154 144 137 136 133 129 122 119 117 104 79 80 85 80 72 43 3 342 341 339 336 333 331 331 311 303 312 316 317 317 314 312 307 300